P/2005 K3 (McNaught)

Epoch 2012 Sept. 30.0 TT = JDT 2456200.5  

T 2012 Sept. 12.72452 TT                                Nakano

q   1.4971389            (2000.0)            P               Q

n   0.13943631     Peri.   15.69496     +0.98966632     -0.13828389

a   3.6831448      Node   351.96183     +0.08385148     +0.77266929

e   0.5935161      Incl.   15.73571     +0.11631636     +0.61956415

P   7.07

From 519 observations 2005 May 20-2006 Feb. 4, mean residual 0".54.

Residuals in seconds of arc 

2005/                     050903 939  0.7-  0.0     051102 J76  0.3+  0.0   

050520 E12  0.5-  0.1+    050903 939  0.8-  0.0     051102 J76  0.3+  0.0   

050520 E12  0.4-  0.1+    050903 232  0.3+  0.0     051102 J76  0.3+  0.0   

050520 E12  0.5+  0.1-    050903 232  0.2-  0.1-    051103 367  0.6-  0.9+  

050520 E12  0.2-  0.1-    050903 232  0.3+  0.2+    051103 367  0.6-  0.5+  

050520 E12  0.0   0.2-    050903 A02  0.4-  0.2-    051103 367  0.7-  0.5+  

050521 E12  0.7+  0.1-    050903 A02  0.4-  0.3-    051104 D88  0.5-  0.2+  

050521 E12  0.4+  0.1-    050903 A02  0.5-  0.2-    051104 D88  0.6-  0.4+  

050521 E12  0.1+  0.3-    050903 H06  0.1+  0.3-    051104 D88  0.6-  0.2+  

050521 E12  0.1+  0.2-    050903 H06  0.6+  0.1-    051104 939  0.8-  0.2+  

050526 E12  0.4-  0.0     050903 H06  0.7+  0.1-    051104 939  0.7-  0.2+  

050526 E12  0.3-  0.4-    050903 349  0.2+  0.4-    051104 939  0.7-  0.2+  

050526 E12  0.2-  0.4-    050903 349  0.1+  0.4-    051105 232  0.7-  0.2+  

050529 E12  0.1+  0.0     050903 349  0.2+  0.5-    051105 232  0.4+  0.7+  

050529 E12  0.1-  0.3-    050903 213  0.6+  0.2+    051105 232  0.0   0.1+  

050530 I77  0.4-  0.2-    050903 213  1.1+  0.3+    051105 349  0.6-  0.5+  

050530 I77  0.4-  0.7-    050903 213  0.1+  0.2+    051105 349  0.3-  0.1+  

050530 I77  1.4-  0.2-    050904 A01  0.1-  0.4+    051105 349  0.4-  0.4+  

050601 E12  0.4+  0.2+    050904 A01  0.0   0.0     051105 939  0.6-  0.3+  

050601 E12  0.2+  0.9+    050904 A01  0.1-  0.1-    051105 939  0.6-  0.4+  

050601 E12  0.0   0.6+    050904 J97  0.2+  0.3-    051106 939  0.6-  0.5+  

050601 E12  0.8+  0.5+    050904 J97  0.4+  0.0     051106 945  0.2+  0.1-  

050604 J76  0.4+  1.1+    050904 232  1.3+  0.1+    051106 945  0.6-  0.5+  

050605 372  0.3+  0.1-    050904 J97  0.1+  0.2-    051106 945  0.6-  0.1+  

050606 D83  1.4-  1.0-    050904 232  0.3-  0.2+    051106 945  0.5-  0.4+  

050606 D83  0.1+  0.6-    050904 J97  0.6+  0.1-    051106 945  0.2-  0.5-  

050606 D83  0.3-  1.2-    050904 232  0.3-  0.2-    051106 213  0.2+  0.6+  

050606 D83  2.0-  0.9-    050905 A32  0.3-  0.0     051106 213  0.5+  0.5+  

050618 J76  0.2-  0.4+    050905 A32  0.3-  0.3+    051106 213  0.2+  0.3+  

050618 J76  0.0   0.5+    050905 A32  0.4-  0.1+    051107 J76  0.1+  0.2+  

050618 J76  0.1+  0.8+    050905 A32  0.3-  0.1+    051107 J76  0.1+  0.3+  

050619 J76  0.4-  0.3+    050906 048  0.5+  0.0     051107 J76  0.1-  0.5+  

050619 J76  0.3-  0.0     050906 048  0.3-  0.1+    051108 D83  0.9+  0.2+  

050619 J76  0.3-  0.2+    050906 048  0.3+  0.1+    051108 D83  0.3+  0.5+  

050619 J76  0.2-  0.0     050906 048  0.3+  0.1-    051108 D83  0.2+  0.3+  

050619 J76  0.0   0.6+    050906 048  0.5+  0.3+    051108 D83  0.0   0.2+  

050619 J76  0.3-  0.2+    050907 349  0.3-  0.1-    051112 349  0.1-  0.3+  

050619 J76  0.6-  0.1+    050907 349  0.3-  0.1-    051112 349  0.3-  0.2+  

050619 J76  0.3-  0.4+    050907 349  0.3-  0.1+    051112 349  0.4-  0.3+  

050621 673  1.2+  1.0+    050908 945  0.2+  0.2-    051113 704 (2.9+  2.5+) 

050621 673  1.1+  1.2+    050908 945  0.5-  0.2+    051113 704  0.4+  1.8+  

050621 673  0.9+  0.6+    050908 945  0.3+  0.3+    051113 704 (1.3+  2.5+) 

050621 673  1.9+  0.6+    050910 232  0.5-  0.5-    051113 704 (0.3-  2.5+) 

050625 J76  0.6-  0.0     050910 232  0.7+  0.1-    051113 704 (4.3-  1.2+) 

050625 J76  1.1-  0.1-    050910 232  0.5+  0.4+    051115 213  0.1+  0.2-  

050625 J76  0.8-  0.3+    050910 939  0.3-  0.5-    051115 213  0.3+  0.1-  

050626 I77  0.2+  0.3+    050910 939  0.1-  0.2+    051115 213  0.6+  0.3-  

050626 I77  1.9+  0.8-    050910 939  0.4+  0.9+    051118 561  0.6+  0.1-  

050626 I77  1.7-  2.0-    050910 349  0.2+  0.2+    051118 561  0.8+  0.6-  

050703 413  0.7+  0.6+    050910 349  0.2+  0.3+    051118 561  0.2-  0.0   

050703 413  0.4+  0.1+    050910 213  0.0   0.3-    051119 213  0.1-  0.1-  

050703 413  0.6+  0.3+    050910 213  0.9+  0.1-    051119 213  0.3+  0.1-  

050704 J76  1.1-  0.4+    050910 213  0.1+  0.0     051119 213  0.3+  0.2-  

050704 J76  0.8-  0.6+    050911 J97 (3.6-  3.8-)   051122 704  0.2-  1.7-  

050704 J76  0.8-  0.0     050911 A10  0.1-  0.2-    051122 704  0.4-  1.0-  

050712 J76  0.3+  0.0     050911 J97 (4.1-  4.1-)   051122 704  1.2-  0.4+  

050712 J76  0.5+  0.2+    050911 A10  0.2+  0.3-    051122 704  0.8-  0.2+  

050712 J76  0.7+  0.2+    050912 D88  0.5+  0.3-    051122 704 (3.2-  0.4+) 

050716 213  1.2+  0.7+    050912 D88  0.1+  0.9+    051124 J97  0.6+  0.2-  

050716 213  1.3+  0.7+    050912 D88  0.0   0.5-    051124 J97  0.2+  0.4+  

050717 232  1.2+  0.2+    050913 A32  0.2-  0.0     051126 D88  0.7+  0.5+  

050717 349  0.8+  0.0     050913 A32  0.1-  0.1+    051126 D88  0.4+  0.3+  

050717 349  0.3+  0.2-    050913 A32  0.2-  0.1-    051126 D88  0.0   0.2+  

050717 349  0.4+  0.2-    050913 A32  0.1-  0.0     051126 379  0.3-  0.1-  

050721 349  0.2+  0.7+    050915 704 (3.6-  0.8-)   051126 379  0.1-  0.0   

050721 349  0.4+  0.7+    050915 704 (2.5-  0.7-)   051126 379  0.2+  0.1+  

050721 349  0.2-  0.5+    050915 704  2.1-  0.5-    051126 379  0.0   0.2+  

050723 I77  0.3+  1.6+    050915 704 (2.4-  0.2-)   051126 213  0.4+  0.1-  

050723 I77  1.2-  1.2-    050915 704 (4.4-  1.2+)   051126 213  0.1-  0.0   

050725 I77  1.3+  0.3-    050916 349  0.2-  0.4+    051126 213  0.5+  0.2+  

050725 I77  0.7+  0.0     050916 349  0.2-  0.4+    051126 232  1.3-  1.2-  

050730 939  1.1-  0.0     050916 349  0.1-  0.3+    051126 232  0.6-  0.6+  

050730 939  1.0-  0.3+    050917 349  0.1-  0.2+    051126 232  0.5+  0.1+  

050730 939  1.0-  0.3+    050917 349  0.3-  0.0     051126 939  0.4-  0.1-  

050731 157  0.3+  0.3-    050917 349  0.2-  0.4+    051126 939  0.4-  0.2-  

050731 157  0.2+  0.5-    050918 048  0.1+  0.2+    051126 939  0.4-  0.1-  

050731 157  0.7+  0.4+    050918 048  0.5+  0.3+    051201 A32  0.4-  0.3-  

050731 157  1.2+  0.1+    050918 048  0.1+  0.1-    051201 A32  0.5-  0.6-  

050803 704 (3.3-  1.6-)   050918 048  0.6+  0.1+    051201 A32  0.5-  0.2-  

050803 704 (3.6-  1.4-)   050918 048  0.1-  0.4-    051201 A32  0.5-  0.2-  

050803 704 (3.7-  1.6-)   050919 118  0.1+  0.3-    051203 232  0.5+  0.1+  

050803 704 (4.1-  2.3-)   050919 118  0.1+  0.1+    051203 232  0.3-  0.0   

050803 704 (4.7-  1.5-)   050919 118  0.8+  0.0     051203 A01  0.5-  0.3+  

050804 130  0.2+  0.2-    050919 213  0.2+  0.2+    051203 A01  0.4-  0.1-  

050804 130  0.1+  0.3-    050919 213  0.4+  0.1+    051203 A01  0.6-  0.5-  

050804 130  0.0   0.2-    050920 048  0.5+  0.2-    051203 213  0.3-  0.3+  

050804 130  0.3+  0.3-    050920 048  0.9+  0.5-    051203 939  0.2-  0.0   

050804 939  0.4-  0.3+    050920 048  0.4+  0.2-    051203 939  0.0   0.3+  

050804 939  0.9-  0.1-    050920 048  0.4+  0.1-    051203 213  0.7+  0.1-  

050804 939  1.2-  0.3-    050920 048  0.3+  0.4-    051203 939  0.4+  0.8+  

050804 349  0.4+  0.3+    050922 048  0.4+  0.4+    051206 939  1.1-  0.2+  

050804 349  0.3+  0.1+    050922 048  0.1+  0.1+    051206 939  1.0-  0.4+  

050804 349  0.2+  0.1+    050922 048  0.3+  0.1+    051206 939  0.8-  0.4+  

050805 170  0.5+  0.3-    050922 048  0.3+  0.0     051207 349  0.3-  0.7-  

050805 170  0.5+  0.2-    050922 048  0.4+  0.1+    051207 349  0.2-  0.6-  

050806 939  0.8-  0.1+    050923 048  0.4-  0.1-    051207 349  0.1-  0.8-  

050806 939  0.6-  0.1+    050923 048  0.3+  0.6-    051208 213  0.2-  0.5+  

050806 939  0.5-  0.0     050923 048  0.6+  0.1+    051208 213  0.1-  0.0   

050806 232  0.1-  0.3-    050923 048  0.6+  0.1-    051208 213  0.3+  0.0   

050806 232  0.1-  0.2-    050923 048  0.4+  0.1-    051209 939  0.6-  0.1-  

050806 232  0.5-  0.4-    050923 048  0.7-  0.9-    051209 939  0.4-  0.0   

050807 939  0.5-  0.2+    050923 048  0.4+  0.3-    051209 939  0.5-  0.1-  

050807 939  0.5-  0.2+    050923 048  0.2+  0.3-    051210 232  0.0   0.1+  

050807 939  0.6-  0.1+    050923 048  0.3+  0.4-    051210 232  0.0   0.1-  

050807 A32  0.5-  0.4-    050923 048  0.8+  0.4-    051210 232  0.4+  0.1-  

050807 A32  0.6-  0.2-    050924 048  0.3-  0.2-    051210 213  0.1-  0.5+  

050807 A32  0.5-  0.0     050924 048  0.3-  0.4-    051210 213  0.4-  0.2-  

050807 A32  0.5-  0.1-    050924 048  0.2-  0.2-    051210 213  1.1-  0.7-  

050807 A32  0.7-  0.2-    050924 048  0.5-  0.3-    051212 118  0.0   0.1+  

050809 442 (6.8-  0.6+)   050924 048  0.4-  0.3-    051212 118  0.0   0.2+  

050809 442  0.3+  0.8+    050927 213  0.4+  0.7-    051212 118  0.0   0.4+  

050811 232  0.1+  0.0     050927 213  0.3+  0.7-    051216 J97  0.1-  0.2-  

050811 232  0.1-  0.0     050927 213  0.2+  0.6-    051217 349  0.4+  0.2-  

050811 232  0.2+  0.1-    051001 232  0.3-  0.0     051217 349  0.4+  0.3-  

050812 A01  0.9-  0.8-    051001 232  0.2-  0.1+    051221 704  1.4+  0.5+  

050813 A33  0.5+  0.3-    051001 232  0.2+  0.1-    051221 704  1.8+  0.1+  

050813 A33  0.5+  0.2-    051001 D88  0.9-  0.2+    051221 704  1.9+  0.7-  

050814 J97  0.8+  0.4-    051001 D88  0.9-  0.8+    051221 704  0.4+  0.4-  

050814 J97  0.7-  0.9-    051001 D88  0.8-  0.3-    051221 704  0.4+  0.0   

050818 A32  0.1-  0.3-    051002 939  0.4-  0.2+    051221 213  0.1-  0.1+  

050818 A32  0.2-  0.3-    051002 939  0.3-  0.0     051221 213  0.2-  0.3+  

